Weather History for Topeka Forbes, KS

Change the Weather History Date:

Friday, December 14, 2012

  Actual Average Record
Temperature  
Mean Temperature 44 °F -  
Max Temperature 52 °F 41 °F 63 °F (1975)
Min Temperature 37 °F 22 °F -2 °F (1963)
Degree Days  
Heating Degree Days 20    
Moisture  
Dew Point 33 °F    
Average Humidity 62    
Maximum Humidity 93    
Minimum Humidity 39    
Precipitation  
Precipitation 0.24 in - - ()
Sea Level Pressure  
Sea Level Pressure 29.86 in    
Wind  
Wind Speed 11 mph (SSE)    
Max Wind Speed 23 mph    
Max Gust Speed 31 mph    
Visibility 9 miles    
Events Rain , Thunderstorm    
Averages and records for this station are not official NWS values.
T = Trace of Precipitation, MM = Missing Value Source: NWS Daily Summary

Daily Weather History Graph

Daily Weather History Graph

Search for Another Location

Airport:

Trip Planner

Search our weather history database for the weather conditions in past years. The results will help you decide how hot, cold, wet, or windy it might be!

Date:

Astronomy

Dec. 14, 2012 Rise Set
Actual Time 7:33 AM CST 5:01 PM CST
Civil Twilight 7:03 AM CST 5:31 PM CST
Nautical Twilight 6:30 AM CST 6:04 PM CST
Astronomical Twilight 5:57 AM CST 6:37 PM CST
Moon 8:40 AM CST (12/14) 6:54 PM CST (12/14)
Length of Visible Light 10h 27m
Length of Day
9h 27m
Waxing Crescent, 3% of the Moon is Illuminated
Dec 14
Waxing Crescent
Dec 19
First Quarter
Dec 28
Full
Jan 4
Last Quarter
Jan 11
New

Hourly Weather History & Observations

Time (CST) Temp. Windchill Dew Point Humidity Pressure Visibility Wind Dir Wind Speed Gust Speed Precip Events Conditions
12:53 AM 37.9 °F 34.4 °F 24.1 °F 57% 30.07 in 10.0 mi SE 4.6 mph - N/A   Clear
1:53 AM 37.0 °F 33.3 °F 24.1 °F 59% 30.07 in 10.0 mi SSE 4.6 mph - N/A   Clear
2:53 AM 37.9 °F 32.1 °F 25.0 °F 60% 30.06 in 10.0 mi SSE 8.1 mph - N/A   Clear
3:53 AM 37.9 °F 30.9 °F 24.1 °F 57% 30.04 in 10.0 mi SSE 10.4 mph - N/A   Clear
4:53 AM 39.0 °F 32.8 °F 24.1 °F 55% 30.04 in 10.0 mi South 9.2 mph - N/A   Clear
5:53 AM 41.0 °F 33.5 °F 24.1 °F 51% 30.03 in 10.0 mi South 13.8 mph - N/A   Clear
6:53 AM 41.0 °F 35.2 °F 24.1 °F 51% 30.05 in 10.0 mi South 9.2 mph 17.3 mph N/A   Clear
7:53 AM 42.1 °F 35.7 °F 24.1 °F 49% 30.04 in 10.0 mi South 11.5 mph - N/A   Clear
8:53 AM 44.1 °F 39.0 °F 25.0 °F 47% 30.03 in 10.0 mi South 9.2 mph - N/A   Clear
9:53 AM 46.9 °F - 26.1 °F 44% 30.04 in 10.0 mi South 13.8 mph - N/A   Clear
10:53 AM 50.0 °F - 26.1 °F 39% 30.02 in 10.0 mi South 12.7 mph - N/A   Scattered Clouds
11:53 AM 51.1 °F - 28.0 °F 41% 29.98 in 10.0 mi South 15.0 mph - N/A   Overcast
1:53 PM 52.0 °F - 30.0 °F 43% 29.90 in 10.0 mi SSE 10.4 mph - N/A   Overcast
2:02 PM 51.8 °F - 30.2 °F 44% 29.88 in 10.0 mi South 12.7 mph - N/A   Overcast
2:30 PM 51.8 °F - 32.0 °F 47% 29.87 in 10.0 mi SSE 12.7 mph - N/A   Overcast
2:53 PM 52.0 °F - 32.0 °F 47% 29.87 in 10.0 mi SSE 11.5 mph - N/A   Overcast
3:41 PM 51.8 °F - 35.6 °F 54% 29.84 in 10.0 mi SSE 16.1 mph 24.2 mph N/A   Overcast
3:53 PM 52.0 °F - 35.1 °F 53% 29.86 in 10.0 mi SSE 15.0 mph 23.0 mph N/A   Overcast
4:53 PM 52.0 °F - 37.0 °F 57% 29.83 in 10.0 mi SSE 13.8 mph 19.6 mph N/A   Overcast
5:09 PM 51.8 °F - 39.2 °F 62% 29.82 in 10.0 mi South 17.3 mph 26.5 mph N/A   Overcast
5:17 PM 51.8 °F - 39.2 °F 62% 29.82 in 10.0 mi South 23.0 mph 31.1 mph N/A   Overcast
5:53 PM 51.1 °F - 37.9 °F 61% 29.82 in 10.0 mi SSE 16.1 mph 23.0 mph N/A   Overcast
6:53 PM 52.0 °F - 34.0 °F 50% 29.82 in 10.0 mi SSE 15.0 mph - N/A   Overcast
7:53 PM 52.0 °F - 34.0 °F 50% 29.78 in 10.0 mi SSE 17.3 mph 24.2 mph N/A   Overcast
8:53 PM 51.1 °F - 34.0 °F 52% 29.73 in 10.0 mi SSE 18.4 mph 28.8 mph N/A   Overcast
9:31 PM 46.4 °F 39.5 °F 41.0 °F 81% 29.70 in 5.0 mi South 17.3 mph 26.5 mph 0.03 in Rain Light Rain
9:53 PM 46.0 °F 39.6 °F 42.1 °F 86% 29.71 in 10.0 mi SSE 15.0 mph - 0.03 in Rain Light Rain
10:01 PM 44.6 °F 37.8 °F 42.8 °F 93% 29.70 in 5.0 mi SSE 15.0 mph 21.9 mph 0.03 in Rain , Thunderstorm Rain
10:24 PM 44.6 °F 37.4 °F 42.8 °F 93% 29.68 in 3.0 mi SE 16.1 mph 20.7 mph 0.13 in Rain Heavy Rain
10:31 PM 44.6 °F 37.4 °F 42.8 °F 93% 29.67 in 7.0 mi SSE 16.1 mph - 0.13 in Rain Light Rain
10:44 PM 44.6 °F 38.4 °F 42.8 °F 93% 29.67 in 9.0 mi SSE 12.7 mph - 0.14 in Rain Rain
10:53 PM 44.1 °F 37.1 °F 42.1 °F 93% 29.69 in 10.0 mi SSE 15.0 mph - 0.14 in Rain Light Rain
11:28 PM 44.6 °F 36.9 °F 42.8 °F 93% 29.65 in 10.0 mi SSE 18.4 mph 23.0 mph 0.06 in   Overcast
11:53 PM 45.0 °F 38.2 °F 43.0 °F 93% 29.61 in 10.0 mi SE 15.0 mph 24.2 mph 0.07 in Rain Light Rain